Location: Eastview
(35.0756°N, 88.5453°W)
Time: 08:38:49
(UTC+00:00)

Cosmos 1782 - Pass Details

Date: 22 November 2019
Orbit: 536 x 554 km, 82.5° (Epoch: 11 December)

Event Time Altitude Azimuth Distance (km) Brightness Sun altitude
Rises 23:43:35 0° 157° (SSE) 2,716 6.3 -12.1°
Reaches altitude 10° 23:46:02 10° 143° (SE) 1,825 5.3 -12.6°
Maximum altitude 23:49:16 24° 90° (E) 1,179 3.9 -13.2°
Enters shadow 23:50:15 21° 67° (ENE) 1,253 4.0 -13.4°
